Location: Cosy Dell
(34.2789°N, 117.4537°W)
Time: 12:12:53
(UTC+00:00)

USA 267 - Pass Details

Date: 14 July 2020
Orbit: 1102 x 1106 km, 123.0° (Epoch: 03 August)

Event Time Altitude Azimuth Distance (km) Brightness Sun altitude
Exits shadow 09:28:45 30° 285° (WNW) 1,865 4.3 -29.9°
Drops below altitude 10° 09:32:09 10° 305° (NW) 2,960 5.6 -29.6°
Sets 09:34:46 0° 311° (NW) 3,921 6.3 -29.4°
